FENGYUN 1C DEB, 30888

Orbit data source: Space-Track

FENGYUN 1C DEB, 30888 is space debris in SSO originally from a launch on Mon, 10 May 1999 UTC launched from the Taiyaun Space Center, China (TSC). Fengyun 1C debris stems from the Chinese weather satellite Fengyun-1C, which was intentionally destroyed by a Chinese anti-satellite missile in 2007. This event dramatically increased the amount of space debris, with thousands of trackable fragments posing hazards to satellites and human spaceflight. The Fengyun 1C debris cloud has become a focal point in discussions about space sustainability and the need for international regulations to prevent the creation of new debris.

Loading next visibility...
Identifier
30888, 1999-025AYA
Orbit
SSO
Country
Flag of CNCN / PRC
Related business
Manufacturer
Unknown
Mission
Spacecraft
Bus & Motor
Unknown
Mass
Unknown
Launch date (UTC)
1999-05-10 (27 years ago)
Launch vehicle
Unknown
Launch site
Taiyaun Space Center, China (TSC)
Object type
Payload
Rocket body
Debris
Shape & HBR
Unknown shape, 0.1 m
Radar Cross Section
Small (<0.1 m²)

Expand to show TLE details & history
Last TLE update: 23 hours ago

TLE from 23 hours ago
0 FENGYUN 1C DEB
1 30888U 99025AYA 25349.92347299  .00006953  00000-0  61679-3 0  9995
2 30888  99.4832 329.3828 0083232 140.7363 219.9928 14.93964967999736
Epoch: 2025-12-15T22:09Z
TLE epoch observation values (Epoch: 2025-12-15T22:09:48.066Z)
Latitude
-0.00002°
Longitude
-87.88254°
Altitude
633.188 km
Speed
7.518 km/s
True Right ascension
21h 57m 31s
True Declination
0° 00' 00"
Sunlit
Object was in daylight at epoch
Visualization orbit readout
Latitude
Unknown
Longitude
Unknown
Altitude
Unknown
Speed
Unknown
Apparent Right ascension
Unknown
Apparent Declination
Unknown
Sunlit
N/A
Visualization observer readout
Local Sidereal Time
19:52:12
Azimuth
Unknown
Elevation
Unknown
Doppler factor
Unknown
Orbital elements
Apogee altitude
640.624 km
Perigee altitude
524.751 km
Semi-major axis
6,960.824 km
Eccentricity
0.00832
Inclination
99.4832°
RAAN
329.3828°
Arg. of periapsis
140.7363°
True anomaly
219.38468°
Mean anomaly
219.9928°
Eccentric anomaly
219.68826°
Mean motion
3.73725 °/min
Orbital period
96.33 mins
BSTAR
0.00061679
Loading maneuver chart data...
Computing Atmospheric mass density...

Documentation

Showing up to 5 results
|